sat.trackr.live / text

‹ back to catalog

CAPELLA-14 (ACADIA-4)

NORAD 59444 · 2024-066C

PAYLOAD ACTIVE UNKNOWN

§ Identity

Operator
Country
US
Launch date
2024-04-07
Launch site
AFETR
Launch vehicle
Mass (kg)
RCS (m²)

External: N2YO · Heavens-Above · Gunter

§ Orbital elements

Epoch: 2026-09-21T22:47:55.334400Z

Period
95.63 min
Inclination
45.6024°
Eccentricity
0.0001177
Mean motion
15.05819812 rev/d
Perigee alt
548.2 km
Apogee alt
549.8 km
Semi-major
6,927.1 km
B*
4.7283e-4
RAAN
108.5435°
Arg perigee
241.3373°
Mean anomaly
118.7393°
Rev number
12,708

§ Raw data

CAPELLA-14 (ACADIA-4)1 59444U 24066C   26264.94994600  .00006725  00000+0  47283-3 0  99912 59444  45.6024 108.5435 0001177 241.3373 118.7393 15.05819812127084

JSON: /api/v1/satellites/59444 · /tle

For live sub-satellite position, see the globe view (requires WebGL).

§ Visibility from observer

Set your observer location to see the next 7 days of passes ≥ 10°. The values pass through the URL so the page stays shareable.

No JS? Fill the form by hand. The geolocation button needs JavaScript.